EHI
0 0 0 0 0 0 0 0 0 0 0 0 0 0 0 0 0 0 0 0 0 0 0 0 0 0 0 0 0 0 0 0 0 0 0 0 0 0 0 0 0 0 0
0 0 0 0 0 0 0 0 0 0 0 0 0 0 0 0 0 0 0 0 0 0 0 0 0 0 0 0 0 0 0 0 0 0 0 0 0 0 0 0 0 0 0
0 0 0 0 0 0 0 0 0 0 0 0 0 0 0 0 0 0 0 0 0 0 0 0 0 0 0 0 0 0 0 0 0 0 0 0 0 0 0 0 0 0 0
0 0 0 0 0 0 0 0 0 0 0 0 0 0 0 0 0 0 0 0 0 0 0 0 0 0 0 0 0 0 0 0 0 0 0 0 0 0 0 0 0 0 0
0 0 0 0 0 0 0 0 0 0 0 0 0 0 0 0 0 0 0 0 0 0 0 0 0 0 0 0 0 0 0 0 0 0 0 0 0 0 0 0 0 0 0
1 0 0 0 0 0 0 0 0 0 0 0 0 0 0 0 0 0 0 0 0 0 0 0 0 0 0 0 0 0 0 0 0 0 0 0 0 0 0 0 0 0 0
2 1 0 0 0 0 0 0 0 0 0 0 0 0 0 0 0 0 0 0 0 0 0 0 0 0 0 0 0 0 0 0 0 0 0 0 0 0 0 0 0 0 0
2 1 0 0 0 0 0 0 0 0 0 0 0 0 0 0 0 0 0 0 0 0 0 0 0 0 0 0 0 0 0 0 0 0 0 0 0 0 0 0 0 0 0
3 2 1 1 0 0 0 0 0 0 0 0 0 0 0 0 0 0 0 0 0 0 0 0 0 0 0 0 0 0 0 0 0 0 0 0 0 0 0 0 0 0 0
2 2 2 2 1 0 0 0 0 0 0 0 0 0 0 0 0 0 0 0 0 0 0 0 0 0 0 0 0 0 0 0 0 0 0 0 0 0 0 0 0 0 0
1 1 2 2 1 0 0 0 0 0 0 0 0 0 0 0 0 0 0 0 0 0 0 0 0 0 0 0 0 0 0 0 0 0 0 0 0 0 0 0 0 0 0
0 0 1 1 1 1 0 0 0 0 0 0 0 0 0 0 0 0 0 0 0 0 0 0 0 0 0 0 0 0 0 0 0 0 0 0 0 0 0 0 0 0 0
0 0 0 0 1 1 1 0 0 0 0 0 0 0 0 0 0 0 0 0 0 0 0 0 0 0 0 0 0 0 0 0 0 0 0 0 0 0 0 0 0 0 0
0 0 0 0 1 1 1 0 0 0 0 0 0 0 0 0 0 0 0 0 0 0 0 0 0 0 0 0 0 0 0 0 0 0 0 0 0 0 0 0 0 0 0
0 0 0 0 0 1 1 0 0 0 0 0 0 0 0 0 0 0 0 0 0 0 0 0 0 0 0 0 0 0 0 0 0 0 0 0 0 0 0 0 0 0 0
0 0 0 0 0 0 0 0 0 0 0 0 0 0 0 0 0 0 0 0 0 0 0 0 0 0 0 0 0 0 0 0 0 0 0 0 0 0 0 0 0 0 0
0 0 0 0 0 0 0 1 1 0 0 0 0 0 0 0 0 0 0 0 0 0 0 0 0 0 0 0 0 0 0 0 0 0 0 0 0 0 0 0 0 0 0
0 0 0 0 0 0 0 1 2 1 0 0 0 0 0 0 0 0 0 0 0 0 0 0 0 0 0 0 0 0 0 0 0 0 0 0 0 0 0 0 0 0 0
0 0 0 0 0 0 0 1 2 1 0 0 0 0 0 0 0 0 0 0 0 0 0 0 0 0 0 0 0 0 0 0 0 0 0 0 0 0 0 0 0 0 0
0 0 0 0 0 0 0 1 1 1 0 0 0 0 0 0 0 0 0 0 0 0 0 0 0 0 0 0 0 0 0 0 0 0 0 0 0 0 0 0 0 0 0
0 0 0 0 0 0 0 0 0 0 0 0 0 0 0 0 0 0 0 0 0 0 0 0 0 0 0 0 0 0 0 0 0 0 0 0 0 0 0 0 0 0 0
0 0 0 0 0 0 0 0 0 0 0 0 0 0 0 0 0 0 0 0 0 0 0 0 0 0 0 0 0 0 0 0 0 0 0 0 0 0 0 0 0 0 0
0 0 0 0 0 0 0 0 0 0 0 0 0 0 0 0 0 0 0 0 0 0 0 0 0 0 0 0 0 0 0 0 0 0 0 0 0 0 0 0 0 0 0
0 0 0 0 0 0 0 0 0 0 0 0 0 0 0 0 0 0 0 0 0 0 0 0 0 0 0 0 0 0 0 0 0 0 0 0 0 0 0 0 0 0 0
0 0 0 0 0 0 0 0 0 0 0 0 0 0 0 0 0 0 0 0 0 0 0 0 0 0 0 0 0 0 0 0 0 0 0 0 0 0 0 0 0 0 0
0 0 0 0 0 0 0 0 0 0 0 0 0 0 0 0 0 0 0 0 0 0 0 0 0 0 0 0 0 0 0 0 0 0 0 0 0 0 0 0 0 0 0
Wind_Speed
6 5 5 4 4 5 5 5 4 4 4 4 3 3 2 2 2 3 2 2 3 3 2 3 2 2 2 2 2 2 1 2 2 2 1 2 2 3 3 3 3 3 3
6 5 5 4 4 5 5 5 4 5 4 4 4 3 3 2 2 3 3 2 3 2 2 2 2 2 3 2 2 2 1 1 2 1 1 2 2 2 2 3 3 3 2
6 6 5 5 5 5 5 5 5 4 3 3 4 4 3 3 3 2 3 2 2 2 2 2 1 2 2 1 2 2 1 1 1 2 1 1 2 2 3 3 3 3 3
6 7 6 6 6 6 5 5 5 5 5 4 4 4 3 3 3 3 3 3 2 1 1 1 1 2 2 1 1 1 1 2 2 1 0 1 2 2 2 2 3 3 3
7 7 7 6 5 5 5 4 4 5 5 5 4 3 3 3 3 4 3 3 2 2 1 1 1 2 2 2 2 1 2 1 1 1 0 1 1 2 2 1 2 3 3
7 7 6 6 6 6 5 5 5 4 4 4 4 4 3 2 4 6 5 3 3 2 1 1 1 1 2 2 2 2 2 2 1 1 1 1 2 2 1 1 1 2 3
6 6 5 6 6 6 6 5 5 5 4 4 4 4 3 3 5 6 7 4 3 2 2 1 0 1 2 1 2 3 2 1 1 3 2 3 3 3 1 1 1 1 3
7 6 6 6 6 6 5 6 5 4 4 4 4 4 3 3 5 6 7 4 3 2 2 2 2 0 1 2 1 2 2 2 2 1 2 3 3 3 3 2 2 2 3
7 7 7 7 7 7 7 6 5 4 4 4 4 5 4 3 5 6 7 3 2 1 1 1 2 2 1 2 2 1 2 3 3 3 2 3 3 3 1 1 1 1 2
9 8 7 7 8 8 8 6 4 5 5 4 4 4 5 4 5 6 6 3 2 1 1 1 2 2 2 3 2 1 2 3 3 3 3 4 3 3 3 2 2 1 2
8 7 7 7 7 7 6 5 5 5 4 4 4 3 3 4 4 6 6 3 3 2 2 2 2 3 3 3 2 2 3 2 1 2 2 3 3 2 2 2 2 2 2
7 7 7 6 6 5 5 5 5 5 5 4 3 2 2 3 3 4 6 5 4 3 3 3 3 3 2 2 2 2 2 1 1 1 2 2 3 3 3 3 3 3 4
7 6 6 5 5 5 6 6 4 4 4 4 3 3 2 2 2 5 6 6 6 3 3 3 3 3 2 2 3 3 1 0 0 1 2 3 3 3 3 2 3 3 3
7 6 5 5 5 4 4 5 5 4 4 4 4 4 2 2 2 2 2 3 3 3 2 2 2 2 2 2 2 2 1 1 2 2 3 3 2 2 2 2 2 2 3
6 6 5 5 5 5 4 4 5 5 6 6 5 5 4 4 5 6 4 3 3 3 2 0 0 1 1 1 2 2 2 1 2 2 2 2 2 2 3 2 2 2 2
5 5 4 4 4 4 3 2 1 2 4 6 6 5 4 6 5 7 7 6 6 5 3 1 2 2 3 3 3 3 2 2 3 2 2 3 3 3 3 3 2 2 3
6 5 4 4 4 4 4 4 2 1 0 3 5 6 5 5 5 6 6 5 5 6 3 2 3 3 3 3 3 3 3 3 3 2 3 3 3 3 3 3 3 3 4
5 5 5 4 4 4 4 4 4 3 2 2 2 5 6 6 6 5 5 4 1 2 2 3 4 3 3 3 3 3 3 3 2 3 3 3 3 3 3 3 3 4 4
4 4 4 4 4 4 4 3 3 4 3 2 1 2 3 3 3 4 5 3 3 3 4 4 4 4 4 4 4 3 3 3 3 3 3 3 3 3 3 4 4 6 5
3 5 4 4 3 3 3 4 3 3 3 3 3 2 1 1 1 2 3 3 3 4 4 4 4 4 3 3 3 3 3 3 3 3 3 3 3 3 4 5 4 4 5
2 3 5 4 3 4 4 4 4 4 4 3 3 3 5 3 3 3 3 3 4 4 4 4 3 3 3 2 2 3 3 3 3 3 3 3 3 3 4 4 5 5 5
3 3 3 3 3 3 3 3 3 3 4 3 2 2 5 3 2 2 3 3 3 3 3 3 3 3 3 3 3 3 3 3 3 3 3 3 3 4 4 4 4 4 5
3 3 2 2 2 3 3 2 3 3 3 3 2 2 2 3 2 2 3 2 2 2 2 2 2 2 2 2 2 3 3 3 3 3 3 3 3 3 3 4 5 5 5
3 3 3 2 2 2 2 2 2 2 2 2 2 2 2 2 2 2 2 1 2 2 2 2 2 3 3 2 2 2 2 3 3 3 4 3 4 3 3 4 5 6 6
3 3 3 2 2 2 2 2 2 2 2 2 2 2 2 2 2 2 1 1 1 2 2 2 2 3 3 3 3 2 3 4 3 2 2 2 3 4 4 4 4 5 5
3 3 3 2 2 2 2 2 2 2 2 2 2 2 2 2 2 1 1 1 1 2 2 2 2 2 2 2 3 3 3 3 4 4 2 2 2 3 3 3 5 5 5
Wind_Direction
180 178 171 176 170 160 161 170 165 153 153 157 152 138 123 109 97 90 86 85 80 59 56 76 61 52 55 40 54 68 84 119 147 284 302 327 4 1 352 350 353 3 359
179 171 174 176 164 162 170 176 169 164 167 162 148 141 140 134 124 117 112 99 96 84 68 78 59 64 53 43 56 61 72 116 141 182 318 339 348 339 342 350 355 2 352
175 173 176 175 173 176 178 175 170 167 165 156 148 149 152 149 144 139 129 120 114 116 117 116 115 96 71 51 61 59 48 66 100 132 290 320 332 346 354 353 354 348 345
176 176 181 187 187 183 177 171 168 165 162 161 156 155 155 152 149 144 130 122 108 95 109 121 129 130 142 131 91 83 84 74 72 88 30 338 332 335 11 357 348 341 334
177 182 191 188 183 175 169 169 167 164 165 165 155 152 153 151 158 149 146 138 123 98 71 78 122 122 131 135 120 131 110 100 87 84 28 356 332 344 341 320 330 321 320
179 188 186 177 177 178 173 166 160 161 161 156 161 160 160 172 165 159 150 142 137 130 114 48 49 66 66 78 97 118 134 138 160 161 214 242 266 265 279 305 325 352 323
176 180 179 177 179 182 171 161 165 168 160 159 165 159 166 178 162 158 154 146 145 151 154 153 88 55 72 75 51 45 35 53 167 173 196 232 239 235 224 270 268 264 261
175 177 177 178 181 176 168 174 177 167 163 164 167 168 170 185 168 156 149 139 142 159 174 176 158 183 129 118 83 32 355 335 310 227 208 232 236 230 209 220 234 264 280
182 186 186 181 178 175 177 182 176 166 167 170 170 172 177 198 179 161 146 140 145 181 200 180 168 192 206 134 109 49 333 320 322 328 308 282 279 275 227 136 339 345 311
192 191 187 181 181 183 184 179 170 167 175 171 174 182 183 194 190 171 154 148 161 196 247 245 215 204 209 168 161 184 272 287 316 337 337 329 316 312 310 207 208 229 276
187 179 180 182 183 182 178 173 166 165 161 169 178 188 193 200 199 184 169 162 176 187 216 245 250 236 217 203 193 209 246 266 278 295 307 316 323 319 307 272 227 208 219
165 167 174 177 178 169 162 166 165 161 162 172 174 188 212 217 207 201 189 184 179 182 214 230 241 237 215 223 227 256 274 308 311 321 315 309 307 299 289 279 265 248 234
157 167 171 169 170 162 163 163 158 164 169 176 176 192 216 223 221 210 201 197 192 194 220 225 227 237 237 254 267 270 275 279 260 286 282 279 274 274 288 298 300 286 279
162 168 167 165 166 162 163 164 163 171 175 178 181 194 203 207 219 217 212 206 202 208 228 240 240 240 230 259 290 288 258 228 228 248 266 276 289 296 289 289 296 304 302
164 167 168 170 170 169 170 177 179 190 185 182 194 191 186 212 223 202 188 196 196 200 166 142 273 270 265 273 269 267 261 265 261 262 266 282 290 290 287 285 278 287 277
160 168 171 168 166 163 160 146 171 180 186 189 189 187 209 220 212 198 200 202 195 176 146 184 228 232 238 246 250 261 256 252 255 254 259 268 272 276 285 290 280 273 276
165 169 167 166 166 167 166 169 176 341 201 202 204 203 211 218 210 202 202 199 186 164 170 213 227 232 239 244 245 250 258 257 248 246 254 261 264 268 274 279 280 281 279
164 167 165 171 172 174 178 180 178 179 204 264 247 227 222 216 210 205 188 151 168 183 209 222 232 236 239 242 243 247 259 270 266 260 259 262 260 262 268 274 273 271 277
158 165 166 165 169 171 169 170 177 185 192 207 250 269 236 220 209 195 165 171 197 215 223 231 234 236 240 240 242 245 249 257 261 263 265 265 264 259 263 266 268 274 273
167 167 158 160 164 164 167 172 180 188 195 202 212 218 177 135 182 209 206 209 212 222 225 231 237 237 238 241 244 248 255 261 264 261 264 269 269 261 261 265 265 268 267
156 164 158 158 170 175 178 185 188 190 199 209 219 212 187 188 202 209 215 220 221 224 228 231 237 240 242 243 243 247 251 260 262 261 264 266 267 266 266 265 264 263 269
153 159 162 167 172 176 181 186 187 192 200 203 214 206 196 192 196 209 224 235 235 232 227 222 230 234 233 233 237 242 249 260 265 264 265 269 270 269 270 272 272 272 271
147 152 156 164 169 172 172 176 179 186 193 198 197 187 187 204 209 217 230 239 242 245 238 225 233 249 251 244 236 230 239 252 258 261 267 270 268 268 270 276 278 280 276
149 154 159 166 166 168 173 181 187 189 188 187 188 191 194 202 211 216 224 237 244 251 253 238 234 242 247 249 252 250 255 267 267 257 256 263 268 272 271 275 277 279 280
152 156 160 167 173 176 177 181 185 189 188 185 184 184 184 191 205 218 225 228 240 252 260 256 246 243 244 244 251 263 275 279 284 286 263 256 264 269 273 278 282 285 285
158 166 169 169 173 176 178 182 185 186 186 185 183 182 183 189 203 212 213 217 243 263 268 268 267 252 249 247 256 270 277 281 284 293 290 271 275 283 286 282 281 282 282